Time,TemperatureF,DewpointF,PressureIn,WindDirection,WindDirectionDegrees,WindSpeedMPH,WindSpeedGustMPH,Humidity,HourlyPrecipIn,Conditions,Clouds,dailyrainin,SoftwareType,DateUTC
2013-02-22 00:02:00,20.0,19.0,30.41,SW,214,0.0,2.0,96,0.00,,,0.00,,2013-02-22 05:02:00,
2013-02-22 00:12:00,20.0,19.0,30.41,SW,214,0.0,2.0,96,0.00,,,0.00,,2013-02-22 05:12:00,
2013-02-22 00:22:00,20.0,19.0,30.42,SSW,201,0.0,2.0,96,0.00,,,0.00,,2013-02-22 05:22:00,
2013-02-22 00:32:00,20.0,19.0,30.42,SSW,201,0.0,2.0,96,0.00,,,0.00,,2013-02-22 05:32:00,
2013-02-22 00:42:00,20.0,19.0,30.42,SSW,201,0.0,2.0,96,0.00,,,0.00,,2013-02-22 05:42:00,
2013-02-22 00:52:00,20.0,19.0,30.42,SSW,201,0.0,2.0,96,0.00,,,0.00,,2013-02-22 05:52:00,
2013-02-22 01:01:00,21.0,20.0,30.40,SSE,149,0.0,0.0,96,0.00,,,0.00,,2013-02-22 06:01:00,
2013-02-22 01:12:00,21.0,20.0,30.40,SE,129,0.0,0.0,96,0.00,,,0.00,,2013-02-22 06:12:00,
2013-02-22 01:22:00,21.0,20.0,30.40,SE,129,0.0,0.0,96,0.00,,,0.00,,2013-02-22 06:22:00,
2013-02-22 01:32:00,21.0,20.0,30.40,SE,129,0.0,0.0,96,0.00,,,0.00,,2013-02-22 06:32:00,
2013-02-22 01:42:00,21.0,20.0,30.40,SE,129,0.0,0.0,96,0.00,,,0.00,,2013-02-22 06:42:00,
2013-02-22 01:52:00,21.0,20.0,30.39,SE,129,0.0,0.0,96,0.00,,,0.00,,2013-02-22 06:52:00,
2013-02-22 02:01:00,21.0,20.0,30.39,SE,129,0.0,0.0,96,0.00,,,0.00,,2013-02-22 07:01:00,
2013-02-22 02:11:00,21.0,20.0,30.39,SE,129,0.0,0.0,96,0.00,,,0.00,,2013-02-22 07:11:00,
2013-02-22 02:21:00,21.0,20.0,30.39,SE,129,0.0,0.0,96,0.00,,,0.00,,2013-02-22 07:21:00,
2013-02-22 02:32:00,21.0,20.0,30.39,SE,129,0.0,0.0,96,0.00,,,0.00,,2013-02-22 07:32:00,
2013-02-22 02:42:00,21.0,20.0,30.39,SE,142,0.0,0.0,97,0.00,,,0.00,,2013-02-22 07:42:00,
2013-02-22 02:52:00,21.0,20.0,30.39,SE,142,0.0,0.0,97,0.00,,,0.00,,2013-02-22 07:52:00,
2013-02-22 03:01:00,21.0,20.0,30.39,ESE,115,0.0,0.0,97,0.00,,,0.00,,2013-02-22 08:01:00,
2013-02-22 03:11:00,21.0,20.0,30.38,ESE,115,0.0,0.0,97,0.00,,,0.00,,2013-02-22 08:11:00,
2013-02-22 03:21:00,21.0,20.0,30.38,ESE,115,0.0,0.0,97,0.00,,,0.00,,2013-02-22 08:21:00,
2013-02-22 03:32:00,21.0,20.0,30.38,ESE,115,0.0,0.0,97,0.00,,,0.00,,2013-02-22 08:32:00,
2013-02-22 03:42:00,21.0,20.0,30.38,ESE,115,0.0,0.0,97,0.00,,,0.00,,2013-02-22 08:42:00,
2013-02-22 03:52:00,21.0,20.0,30.37,ESE,115,0.0,0.0,96,0.00,,,0.00,,2013-02-22 08:52:00,
2013-02-22 04:03:00,21.0,20.0,30.36,ESE,115,0.0,0.0,97,0.00,,,0.00,,2013-02-22 09:03:00,
2013-02-22 04:11:00,21.0,20.0,30.35,ESE,115,0.0,0.0,97,0.00,,,0.00,,2013-02-22 09:11:00,
2013-02-22 04:21:00,21.0,20.0,30.35,ESE,115,0.0,0.0,97,0.00,,,0.00,,2013-02-22 09:21:00,
2013-02-22 04:32:00,21.0,20.0,30.35,ESE,115,0.0,0.0,97,0.00,,,0.00,,2013-02-22 09:32:00,
2013-02-22 04:42:00,22.0,21.0,30.37,ESE,115,0.0,0.0,97,0.00,,,0.00,,2013-02-22 09:42:00,
2013-02-22 04:52:00,22.0,21.0,30.37,ESE,115,0.0,0.0,97,0.00,,,0.00,,2013-02-22 09:52:00,
2013-02-22 05:01:00,22.0,21.0,30.37,ESE,115,0.0,0.0,97,0.00,,,0.00,,2013-02-22 10:01:00,
2013-02-22 05:11:00,22.0,21.0,30.40,SW,231,2.0,0.0,97,0.00,,,0.00,,2013-02-22 10:11:00,
2013-02-22 05:21:00,22.0,21.0,30.40,SW,231,2.0,0.0,97,0.00,,,0.00,,2013-02-22 10:21:00,
2013-02-22 05:32:00,22.0,21.0,30.40,SW,231,2.0,0.0,97,0.00,,,0.00,,2013-02-22 10:32:00,
2013-02-22 05:42:00,22.0,21.0,30.42,WSW,244,0.0,2.0,97,0.00,,,0.00,,2013-02-22 10:42:00,
2013-02-22 05:52:00,22.0,21.0,30.42,WSW,244,0.0,2.0,97,0.00,,,0.00,,2013-02-22 10:52:00,
2013-02-22 06:01:00,22.0,21.0,30.42,SSW,207,1.0,2.0,97,0.00,,,0.00,,2013-02-22 11:01:00,
2013-02-22 06:11:00,22.0,21.0,30.42,WSW,238,0.0,0.0,96,0.00,,,0.00,,2013-02-22 11:11:00,
2013-02-22 06:22:00,22.0,21.0,30.42,WSW,238,0.0,0.0,96,0.00,,,0.00,,2013-02-22 11:22:00,
2013-02-22 06:32:00,22.0,21.0,30.42,WSW,238,0.0,0.0,96,0.00,,,0.00,,2013-02-22 11:32:00,
2013-02-22 06:42:00,22.0,21.0,30.42,West,264,0.0,1.0,96,0.00,,,0.00,,2013-02-22 11:42:00,
2013-02-22 06:52:00,22.0,21.0,30.42,West,264,0.0,1.0,96,0.00,,,0.00,,2013-02-22 11:52:00,
2013-02-22 07:02:00,22.0,21.0,30.43,SW,220,0.0,2.0,96,0.00,,,0.00,,2013-02-22 12:02:00,
2013-02-22 07:11:00,22.0,21.0,30.43,SW,220,0.0,2.0,96,0.00,,,0.00,,2013-02-22 12:11:00,
2013-02-22 07:22:00,22.0,21.0,30.44,NW,310,0.0,0.0,96,0.00,,,0.00,,2013-02-22 12:22:00,
2013-02-22 07:32:00,22.0,21.0,30.44,NW,310,0.0,0.0,96,0.00,,,0.00,,2013-02-22 12:32:00,
2013-02-22 07:42:00,22.0,21.0,30.44,NW,310,0.0,0.0,96,0.00,,,0.00,,2013-02-22 12:42:00,
2013-02-22 07:52:00,22.0,21.0,30.44,NW,310,0.0,0.0,96,0.00,,,0.00,,2013-02-22 12:52:00,
2013-02-22 08:02:00,22.0,21.0,30.43,NW,310,0.0,0.0,96,0.00,,,0.00,,2013-02-22 13:02:00,
2013-02-22 08:11:00,22.0,21.0,30.43,NW,310,0.0,0.0,96,0.00,,,0.00,,2013-02-22 13:11:00,
2013-02-22 08:22:00,23.0,22.0,30.44,SE,138,0.0,0.0,96,0.00,,,0.00,,2013-02-22 13:22:00,
2013-02-22 08:32:00,23.0,22.0,30.44,SE,138,0.0,0.0,96,0.00,,,0.00,,2013-02-22 13:32:00,
2013-02-22 08:42:00,24.0,23.0,30.44,SW,223,2.0,0.0,95,0.00,,,0.00,,2013-02-22 13:42:00,
2013-02-22 08:52:00,24.0,23.0,30.44,SW,223,2.0,0.0,95,0.00,,,0.00,,2013-02-22 13:52:00,
2013-02-22 09:01:00,24.0,23.0,30.44,ESE,117,1.0,2.0,95,0.00,,,0.00,,2013-02-22 14:01:00,
2013-02-22 09:11:00,25.0,24.0,30.44,SE,127,3.0,3.0,94,0.00,,,0.00,,2013-02-22 14:11:00,
2013-02-22 09:20:00,26.0,24.0,30.43,South,184,0.0,0.0,93,0.00,,,0.00,,2013-02-22 14:20:00,
2013-02-22 09:21:00,25.0,24.0,30.44,SE,127,3.0,3.0,94,0.00,,,0.00,,2013-02-22 14:21:00,
2013-02-22 09:32:00,25.0,24.0,30.44,SE,127,3.0,3.0,94,0.00,,,0.00,,2013-02-22 14:32:00,
2013-02-22 09:42:00,26.0,24.0,30.43,South,184,0.0,0.0,93,0.00,,,0.00,,2013-02-22 14:42:00,
2013-02-22 09:53:00,26.0,24.0,30.43,South,184,0.0,0.0,93,0.00,,,0.00,,2013-02-22 14:53:00,
2013-02-22 10:01:00,26.0,24.0,30.43,South,184,0.0,0.0,93,0.00,,,0.00,,2013-02-22 15:01:00,
2013-02-22 10:12:00,26.0,24.0,30.43,South,184,0.0,0.0,93,0.00,,,0.00,,2013-02-22 15:12:00,
2013-02-22 10:52:00,28.0,25.0,30.40,ENE,69,0.0,0.0,88,0.00,,,0.00,,2013-02-22 15:52:00,
2013-02-22 11:02:00,28.0,25.0,30.40,ENE,69,0.0,0.0,88,0.00,,,0.00,,2013-02-22 16:02:00,
2013-02-22 11:12:00,30.0,26.0,30.39,North,4,4.0,0.0,85,0.00,,,0.00,,2013-02-22 16:12:00,
2013-02-22 11:22:00,30.0,26.0,30.39,North,4,4.0,0.0,85,0.00,,,0.00,,2013-02-22 16:22:00,
2013-02-22 11:32:00,30.0,26.0,30.39,North,4,4.0,0.0,85,0.00,,,0.00,,2013-02-22 16:32:00,
2013-02-22 11:42:00,30.0,26.0,30.39,North,4,4.0,0.0,85,0.00,,,0.00,,2013-02-22 16:42:00,
2013-02-22 11:52:00,30.0,26.0,30.39,North,4,4.0,0.0,85,0.00,,,0.00,,2013-02-22 16:52:00,
2013-02-22 12:01:00,33.0,28.0,30.38,ENE,66,0.0,0.0,82,0.00,,,0.00,,2013-02-22 17:01:00,
2013-02-22 12:11:00,34.0,28.0,30.37,NNE,22,0.0,2.0,79,0.00,,,0.00,,2013-02-22 17:11:00,
2013-02-22 12:22:00,34.0,28.0,30.37,NNE,22,0.0,2.0,79,0.00,,,0.00,,2013-02-22 17:22:00,
2013-02-22 12:32:00,34.0,28.0,30.37,NNE,22,0.0,2.0,79,0.00,,,0.00,,2013-02-22 17:32:00,
2013-02-22 12:42:00,35.0,29.0,30.35,ENE,60,9.0,9.0,77,0.00,,,0.00,,2013-02-22 17:42:00,
2013-02-22 12:52:00,35.0,29.0,30.35,ENE,60,9.0,9.0,77,0.00,,,0.00,,2013-02-22 17:52:00,
2013-02-22 13:01:00,35.0,29.0,30.34,NE,52,1.0,6.0,77,0.00,,,0.00,,2013-02-22 18:01:00,
2013-02-22 13:12:00,34.0,27.0,30.32,East,83,6.0,6.0,76,0.00,,,0.00,,2013-02-22 18:12:00,
2013-02-22 13:22:00,34.0,27.0,30.32,East,83,6.0,6.0,76,0.00,,,0.00,,2013-02-22 18:22:00,
2013-02-22 13:32:00,34.0,27.0,30.32,East,83,6.0,6.0,76,0.00,,,0.00,,2013-02-22 18:32:00,
2013-02-22 13:42:00,34.0,27.0,30.32,East,83,6.0,6.0,76,0.00,,,0.00,,2013-02-22 18:42:00,
2013-02-22 13:52:00,35.0,29.0,30.31,NE,39,7.0,7.0,77,0.00,,,0.00,,2013-02-22 18:52:00,
2013-02-22 14:00:00,35.0,29.0,30.29,NE,45,0.0,4.0,77,0.00,,,0.00,,2013-02-22 19:00:00,
2013-02-22 14:01:00,35.0,28.0,30.30,NE,52,4.0,5.0,76,0.00,,,0.00,,2013-02-22 19:01:00,
2013-02-22 14:11:00,35.0,29.0,30.29,NE,45,0.0,4.0,77,0.00,,,0.00,,2013-02-22 19:11:00,
2013-02-22 14:21:00,35.0,29.0,30.29,NE,45,0.0,4.0,77,0.00,,,0.00,,2013-02-22 19:21:00,
2013-02-22 14:31:00,35.0,29.0,30.29,NE,45,0.0,4.0,77,0.00,,,0.00,,2013-02-22 19:31:00,
2013-02-22 14:41:00,35.0,29.0,30.29,NE,45,0.0,4.0,77,0.00,,,0.00,,2013-02-22 19:41:00,
2013-02-22 14:52:00,35.0,29.0,30.29,NE,45,0.0,4.0,77,0.00,,,0.00,,2013-02-22 19:52:00,
2013-02-22 15:22:00,35.0,29.0,30.27,North,358,5.0,6.0,78,0.00,,,0.00,,2013-02-22 20:22:00,
2013-02-22 15:32:00,35.0,29.0,30.27,North,358,5.0,6.0,78,0.00,,,0.00,,2013-02-22 20:32:00,
2013-02-22 15:42:00,35.0,29.0,30.27,North,358,5.0,6.0,78,0.00,,,0.00,,2013-02-22 20:42:00,
2013-02-22 15:52:00,34.0,28.0,30.25,NNE,25,6.0,6.0,80,0.00,,,0.00,,2013-02-22 20:52:00,
2013-02-22 16:01:00,34.0,28.0,30.25,NNE,31,2.0,4.0,80,0.00,,,0.00,,2013-02-22 21:01:00,
2013-02-22 16:11:00,34.0,29.0,30.25,NE,36,1.0,4.0,81,0.00,,,0.00,,2013-02-22 21:11:00,
2013-02-22 16:21:00,34.0,29.0,30.25,NE,36,1.0,4.0,81,0.00,,,0.00,,2013-02-22 21:21:00,
2013-02-22 16:32:00,34.0,29.0,30.25,NE,36,1.0,4.0,81,0.00,,,0.00,,2013-02-22 21:32:00,
2013-02-22 16:42:00,33.0,28.0,30.24,North,8,0.0,3.0,81,0.00,,,0.00,,2013-02-22 21:42:00,
2013-02-22 16:52:00,33.0,28.0,30.24,North,8,0.0,3.0,81,0.00,,,0.00,,2013-02-22 21:52:00,
2013-02-22 17:01:00,34.0,28.0,30.23,North,2,7.0,7.0,80,0.00,,,0.00,,2013-02-22 22:01:00,
2013-02-22 17:11:00,34.0,28.0,30.23,North,2,7.0,7.0,80,0.00,,,0.00,,2013-02-22 22:11:00,
2013-02-22 17:21:00,33.0,28.0,30.23,NNE,31,1.0,4.0,82,0.00,,,0.00,,2013-02-22 22:21:00,
2013-02-22 17:32:00,33.0,28.0,30.23,NNE,31,1.0,4.0,82,0.00,,,0.00,,2013-02-22 22:32:00,
2013-02-22 17:42:00,32.0,28.0,30.23,NNE,24,7.0,7.0,84,0.00,,,0.00,,2013-02-22 22:42:00,
2013-02-22 17:52:00,32.0,28.0,30.23,NNE,24,7.0,7.0,84,0.00,,,0.00,,2013-02-22 22:52:00,
2013-02-22 18:01:00,31.0,27.0,30.23,NNE,15,7.0,7.0,85,0.00,,,0.00,,2013-02-22 23:01:00,
2013-02-22 18:11:00,31.0,27.0,30.23,North,9,2.0,5.0,86,0.00,,,0.00,,2013-02-22 23:11:00,
2013-02-22 18:21:00,31.0,27.0,30.23,North,9,2.0,5.0,86,0.00,,,0.00,,2013-02-22 23:21:00,
2013-02-22 18:32:00,31.0,27.0,30.23,North,9,2.0,5.0,86,0.00,,,0.00,,2013-02-22 23:32:00,
2013-02-22 18:42:00,31.0,27.0,30.23,North,9,2.0,5.0,86,0.00,,,0.00,,2013-02-22 23:42:00,
2013-02-22 18:52:00,31.0,27.0,30.23,NNE,25,5.0,5.0,86,0.00,,,0.00,,2013-02-22 23:52:00,
2013-02-22 19:02:00,31.0,27.0,30.22,ESE,114,4.0,4.0,86,0.00,,,0.00,,2013-02-23 00:02:00,
2013-02-22 19:11:00,30.0,26.0,30.21,ENE,57,4.0,4.0,86,0.00,,,0.00,,2013-02-23 00:11:00,
2013-02-22 19:21:00,30.0,26.0,30.21,ENE,57,4.0,4.0,86,0.00,,,0.00,,2013-02-23 00:21:00,
2013-02-22 19:32:00,30.0,26.0,30.21,ENE,57,4.0,4.0,86,0.00,,,0.00,,2013-02-23 00:32:00,
2013-02-22 19:42:00,30.0,26.0,30.21,ENE,57,4.0,4.0,86,0.00,,,0.00,,2013-02-23 00:42:00,
2013-02-22 19:52:00,30.0,26.0,30.21,ENE,57,4.0,4.0,86,0.00,,,0.00,,2013-02-23 00:52:00,
2013-02-22 20:01:00,30.0,26.0,30.20,NNE,18,6.0,0.0,86,0.00,,,0.00,,2013-02-23 01:01:00,
2013-02-22 20:11:00,30.0,26.0,30.21,East,96,1.0,1.0,86,0.00,,,0.00,,2013-02-23 01:11:00,
2013-02-22 20:21:00,30.0,26.0,30.21,East,96,1.0,1.0,86,0.00,,,0.00,,2013-02-23 01:21:00,
2013-02-22 20:32:00,30.0,26.0,30.21,East,96,1.0,1.0,86,0.00,,,0.00,,2013-02-23 01:32:00,
2013-02-22 20:42:00,30.0,26.0,30.21,East,96,1.0,1.0,86,0.00,,,0.00,,2013-02-23 01:42:00,
2013-02-22 20:52:00,30.0,26.0,30.20,NE,38,0.0,4.0,86,0.00,,,0.00,,2013-02-23 01:52:00,
2013-02-22 21:01:00,30.0,27.0,30.19,NNE,19,6.0,6.0,87,0.00,,,0.00,,2013-02-23 02:01:00,
2013-02-22 21:11:00,30.0,26.0,30.19,North,0,0.0,2.0,86,0.00,,,0.00,,2013-02-23 02:11:00,
2013-02-22 21:21:00,30.0,26.0,30.19,North,0,0.0,2.0,86,0.00,,,0.00,,2013-02-23 02:21:00,
2013-02-22 21:32:00,30.0,26.0,30.19,North,0,0.0,2.0,86,0.00,,,0.00,,2013-02-23 02:32:00,
2013-02-22 21:42:00,30.0,26.0,30.19,North,0,0.0,2.0,86,0.00,,,0.00,,2013-02-23 02:42:00,
2013-02-22 21:52:00,30.0,26.0,30.19,NE,55,0.0,2.0,86,0.00,,,0.00,,2013-02-23 02:52:00,
2013-02-22 22:01:00,30.0,26.0,30.18,NNE,33,6.0,6.0,86,0.00,,,0.00,,2013-02-23 03:01:00,
2013-02-22 22:11:00,30.0,26.0,30.17,ENE,60,2.0,2.0,86,0.00,,,0.00,,2013-02-23 03:11:00,
2013-02-22 22:21:00,30.0,26.0,30.17,ENE,60,2.0,2.0,86,0.00,,,0.00,,2013-02-23 03:21:00,
2013-02-22 22:32:00,30.0,26.0,30.17,ENE,60,2.0,2.0,86,0.00,,,0.00,,2013-02-23 03:32:00,
2013-02-22 22:40:00,30.0,27.0,30.17,NE,40,0.0,0.0,87,0.00,,,0.00,,2013-02-23 03:40:00,
2013-02-22 22:42:00,30.0,26.0,30.17,ENE,60,2.0,2.0,86,0.00,,,0.00,,2013-02-23 03:42:00,
2013-02-22 22:52:00,30.0,26.0,30.17,North,8,0.0,0.0,86,0.00,,,0.00,,2013-02-23 03:52:00,
2013-02-22 23:01:00,30.0,27.0,30.17,NE,40,0.0,0.0,87,0.00,,,0.00,,2013-02-23 04:01:00,
2013-02-22 23:11:00,30.0,27.0,30.17,NE,40,0.0,0.0,87,0.00,,,0.00,,2013-02-23 04:11:00,
2013-02-22 23:21:00,30.0,27.0,30.17,NE,40,0.0,0.0,87,0.00,,,0.00,,2013-02-23 04:21:00,
2013-02-22 23:32:00,30.0,27.0,30.17,NE,40,0.0,0.0,87,0.00,,,0.00,,2013-02-23 04:32:00,
2013-02-22 23:52:00,29.0,26.0,30.16,NE,40,0.0,4.0,90,0.00,,,0.00,,2013-02-23 04:52:00,